[[{"header":{"parameterUnit":"m.s-1","parameterCategory":1,"la1":30.2991,"la2":30.254,"lo1":-89.0895,"lo2":-89.0444,"dy":0.0017,"dx":0.0017,"nx":28,"ny":28,"refTime":"2024-06-16T03:00:00:Z","depth":0,"parameterNumber":2,"parameterNumberName":"U-component_of_WINDS"},"data":[0,0,0,0,0,0,0,0,0,0,0,0,0,0,0,0,0,0,0,0,0,0,0,0,0,0,0,0,0,0,0,0,0,0,0,0,0,0,0,0,0,0,0,0,0,0,0,0,0,0,0,0,0,0,0,0,0,0,-2.793,-2.7929,0,-2.7854,-2.7853,-2.7852,-2.7777,-2.7776,-2.7775,-2.7774,-2.7695,-2.7694,-2.7693,0,0,0,0,0,0,0,0,0,0,0,0,0,-2.8007,-2.8006,-2.793,-2.7929,-2.7928,-2.7854,-2.7853,-2.7852,-2.7778,-2.7776,-2.7775,-2.7774,-2.7695,-2.7694,-2.7693,0,0,0,0,0,0,0,0,0,0,0,0,0,-2.7957,-2.8006,-2.793,-2.7882,-2.7877,-2.7854,-2.7853,-2.7852,-2.7778,-2.7776,-2.7775,-2.7773,-2.7696,-2.7694,-2.7692,-2.7711,0,0,-2.7687,-2.7686,0,0,0,0,0,0,0,0,-2.796,-2.7954,-2.789,-2.7885,-2.788,-2.7824,-2.7851,-2.7804,-2.7778,-2.7815,-2.7774,-2.7773,-2.7739,-2.7734,-2.7722,-2.7707,-2.7704,-2.7687,-2.7686,-2.7685,-2.7684,0,0,0,0,0,0,0,-2.7963,-2.7957,-2.79,-2.7889,-2.7883,-2.7863,-2.7854,-2.7842,-2.7786,-2.7812,-2.7806,-2.7799,-2.7736,-2.7724,-2.772,-2.7702,-2.7687,-2.7685,-2.7684,-2.7683,-2.7695,-2.7696,0,0,0,0,0,0,-2.7974,-2.796,-2.7902,-2.7898,-2.7917,-2.7863,-2.7853,-2.7843,-2.7786,-2.7776,-2.78,-2.7795,-2.7728,-2.7722,-2.7717,-2.7732,-2.7685,-2.7683,-2.7682,-2.7693,-2.7695,-2.7696,0,0,0,0,0,0,-2.7976,-2.797,-2.7905,-2.7927,-2.7918,-2.7863,-2.7853,-2.7842,-2.7831,-2.7777,-2.7767,-2.7799,-2.7727,-2.772,-2.7712,-2.7728,-2.7682,-2.7681,-2.7692,-2.7694,-2.7696,-2.7764,0,0,0,0,0,0,-2.7979,-2.7971,-2.7978,-2.7928,-2.7917,-2.7903,-2.7854,-2.7842,-2.7828,-2.7821,-2.7773,-2.7764,-2.7725,-2.7715,-2.771,-2.7725,-2.7679,-2.769,-2.7693,-2.7695,-2.776,-2.7768,-2.7775,0,0,0,0,0,-2.7982,-2.8001,-2.7979,-2.7973,-2.7925,-2.7904,-2.7897,-2.7853,-2.783,-2.7836,-2.7801,-2.7765,-2.7728,-2.7715,-2.7709,-2.7723,-2.7689,-2.7692,-2.7695,-2.7756,-2.7766,-2.7775,0,0,0,0,0,0,-2.8054,-2.7993,-2.7969,-2.7972,-2.7944,-2.7891,-2.7898,-2.7866,-2.7843,-2.7837,-2.7783,-2.7773,-2.7771,-2.7747,-2.7734,-2.7736,-2.7703,-2.7705,-2.7752,-2.7761,-2.7768,-2.7773,-2.7678,0,0,0,0,0,-2.8071,-2.806,-2.8007,-2.8015,-2.8002,-2.7953,-2.7942,-2.791,-2.7879,-2.7866,-2.7831,-2.7801,-2.7781,-2.777,-2.775,-2.7757,-2.7743,-2.7763,-2.7771,-2.7777,-2.7779,-2.7777,-2.7784,-2.7707,-2.7707,-2.7706,0,0,-2.8104,-2.807,-2.8066,-2.8029,-2.8003,-2.7991,-2.7943,-2.7934,-2.7924,-2.7864,-2.7854,-2.7828,-2.779,-2.7789,-2.7787,-2.7769,-2.7797,-2.7781,-2.7787,-2.7784,-2.7781,-2.7788,-2.7795,-2.7709,-2.7708,-2.7708,0,0,-2.8159,-2.8133,-2.8135,-2.811,-2.8072,-2.8039,-2.804,-2.7992,-2.7972,-2.7961,-2.7915,-2.7903,-2.7873,-2.7847,-2.783,-2.7873,-2.7838,-2.7868,-2.7907,-2.7906,-2.7912,-2.7917,-2.7929,-2.7935,-2.7871,-2.7871,-2.7871,0,-2.8205,-2.8187,-2.814,-2.8133,-2.8117,-2.8063,-2.8064,-2.8042,-2.7999,-2.7988,-2.7969,-2.7927,-2.7899,-2.7889,-2.79,-2.7889,-2.7886,-2.7873,-2.7915,-2.7919,-2.7923,-2.7935,-2.794,-2.7874,-2.7874,-2.7874,-2.7873,0,-2.8244,-2.8232,-2.8238,-2.8198,-2.8182,-2.8179,-2.8131,-2.8121,-2.8091,-2.8059,-2.8048,-2.8011,-2.7982,-2.7978,-2.7948,-2.7963,-2.7953,-2.7925,-2.789,-2.7935,-2.7945,-2.7949,-2.788,-2.7878,-2.7877,-2.7876,0,0,-2.8341,-2.8274,-2.8277,-2.8257,-2.8211,-2.82,-2.8193,-2.8164,-2.8155,-2.8128,-2.8119,-2.8094,-2.8067,-2.8048,-2.8015,-2.8015,-2.8048,-2.7987,-2.7985,-2.7997,-2.8058,-2.8077,-2.8083,-2.8025,-2.8026,-2.8027,-2.806,0,-2.8385,-2.8371,-2.8329,-2.8327,-2.8313,-2.8262,-2.8256,-2.8226,-2.8196,-2.8179,-2.8146,-2.8127,-2.8096,-2.8083,-2.8081,-2.8044,-2.8059,-2.8042,-2.8014,-2.8014,-2.8023,-2.8089,-2.8109,-2.8143,-2.8064,-2.8065,-2.8065,0,-2.8435,-2.841,-2.8407,-2.8359,-2.8351,-2.8347,-2.8316,-2.8301,-2.8265,-2.8243,-2.8222,-2.8185,-2.8173,-2.8143,-2.8124,-2.8113,-2.81,-2.808,-2.808,-2.8074,-2.8041,-2.8081,-2.8153,-2.8157,-2.8071,-2.8071,-2.807,0,-2.8502,-2.8468,-2.8461,-2.8446,-2.8391,-2.8388,-2.8365,-2.8327,-2.8312,-2.8285,-2.8273,-2.8246,-2.8229,-2.8208,-2.8163,-2.8146,-2.8149,-2.8115,-2.8128,-2.8129,-2.8129,-2.8129,-2.8197,-2.8125,-2.8125,-2.8125,-2.8125,0,-2.8555,-2.8554,-2.849,-2.8485,-2.8482,-2.8433,-2.8431,-2.8403,-2.837,-2.8358,-2.8312,-2.8301,-2.8244,-2.8226,-2.8192,-2.818,-2.8174,-2.8154,-2.8144,-2.8157,-2.8159,-2.8145,-2.814,-2.8126,-2.8126,-2.8126,-2.8126,0,-2.8628,-2.8586,-2.8574,-2.8523,-2.851,-2.851,-2.8464,-2.8457,-2.8425,-2.8409,-2.8403,-2.8351,-2.8327,-2.8281,-2.8245,-2.8222,-2.8216,-2.8201,-2.8228,-2.8222,-2.8236,-2.8234,-2.8295,-2.8299,-2.8228,-2.8229,-2.823,0,-2.8663,-2.8661,-2.861,-2.8598,-2.8577,-2.8559,-2.8543,-2.8495,-2.8479,-2.8437,-2.8434,-2.8407,-2.8382,-2.8346,-2.8305,-2.8276,-2.8258,-2.8281,-2.8253,-2.8264,-2.8254,-2.8254,-2.8252,-2.8287,-2.8288,-2.8288,-2.8289,0,-2.8729,-2.8708,-2.8687,-2.8658,-2.864,-2.8615,-2.8587,-2.858,-2.8525,-2.851,-2.8485,-2.8466,-2.8428,-2.84,-2.8365,-2.8339,-2.8304,-2.8299,-2.8299,-2.831,-2.8325,-2.8314,-2.8242,-2.8297,-2.8296,-2.8295,-2.8295,-2.8295,-2.8782,-2.8777,-2.8739,-2.8717,-2.8691,-2.8666,-2.8655,-2.8621,-2.86,-2.8566,-2.8538,-2.8515,-2.8477,-2.8426,-2.8402,-2.8382,-2.8365,-2.8367,-2.8367,-2.8368,-2.8371,-2.8331,-2.8375,-2.8375,-2.8375,-2.8375,-2.8374,0,-2.8843,-2.8816,-2.8796,-2.8758,-2.874,-2.871,-2.8677,-2.8663,-2.8643,-2.8611,-2.8588,-2.8558,-2.8531,-2.8487,-2.8455,-2.8447,-2.843,-2.844,-2.8439,-2.8433,-2.8389,-2.839,-2.8454,-2.8454,-2.8454,-2.8454,-2.8454,-2.8454,-2.8872,-2.8861,-2.8835,-2.881,-2.8782,-2.8759,-2.8743,-2.8719,-2.8692,-2.8661,-2.8638,-2.861,-2.8572,-2.8537,-2.851,-2.8497,-2.8487,-2.8501,-2.8484,-2.8444,-2.8436,-2.8429,-2.8429,-2.85,-2.85,-2.8528,-2.8528,-2.8528]},{"header":{"parameterUnit":"m.s-1","parameterCategory":1,"la1":30.2991,"la2":30.254,"lo1":-89.0895,"lo2":-89.0444,"dy":0.0017,"dx":0.0017,"nx":28,"ny":28,"refTime":"2024-06-16T03:00:00:Z","depth":0,"parameterNumber":3,"parameterNumberName":"V-component_of_WINDS"},"data":[0,0,0,0,0,0,0,0,0,0,0,0,0,0,0,0,0,0,0,0,0,0,0,0,0,0,0,0,0,0,0,0,0,0,0,0,0,0,0,0,0,0,0,0,0,0,0,0,0,0,0,0,0,0,0,0,0,0,2.9706,2.9707,0,2.975,2.9751,2.9751,2.97,2.9699,2.9697,2.9695,2.9737,2.974,2.9743,0,0,0,0,0,0,0,0,0,0,0,0,0,2.9575,2.9578,2.9706,2.9707,2.9707,2.975,2.9751,2.9752,2.9701,2.9698,2.9696,2.9694,2.9736,2.974,2.9743,0,0,0,0,0,0,0,0,0,0,0,0,0,2.9627,2.9579,2.9706,2.9687,2.9686,2.975,2.9751,2.9752,2.9701,2.9698,2.9696,2.9693,2.9735,2.9739,2.9744,2.9828,0,0,2.9757,2.9759,0,0,0,0,0,0,0,0,2.9624,2.9632,2.9689,2.9689,2.9687,2.9717,2.972,2.9777,2.9702,2.9695,2.9695,2.9691,2.9733,2.9737,2.9751,2.983,2.9832,2.9757,2.976,2.9762,2.9763,0,0,0,0,0,0,0,2.962,2.9629,2.9723,2.969,2.9689,2.9676,2.968,2.9731,2.9729,2.9696,2.9692,2.9698,2.9731,2.9747,2.9752,2.9832,2.9757,2.9761,2.9764,2.9766,2.9982,2.9985,0,0,0,0,0,0,2.9619,2.9627,2.9722,2.9725,2.9648,2.968,2.9685,2.971,2.9729,2.9729,2.9701,2.9696,2.9741,2.9747,2.9753,2.9853,2.9762,2.9766,2.9768,2.9979,2.9982,2.9986,0,0,0,0,0,0,2.9617,2.9628,2.972,2.9675,2.9686,2.9686,2.9714,2.9713,2.9729,2.9732,2.9732,2.9717,2.9739,2.9747,2.981,2.9854,2.9768,2.9772,2.9975,2.998,2.9984,3.0053,0,0,0,0,0,0,2.9613,2.9628,2.966,2.9676,2.9688,2.9777,2.9717,2.9716,2.9737,2.9731,2.9748,2.9748,2.9738,2.9804,2.9814,2.9858,2.9775,2.9971,2.9977,2.9983,3.0047,3.006,3.0071,0,0,0,0,0,2.9609,2.9677,2.9662,2.9674,2.9729,2.978,2.9786,2.9774,2.974,2.9773,2.9775,2.9747,2.9848,2.9811,2.9822,2.9868,2.9968,2.9975,2.9982,3.0042,3.0057,3.007,0,0,0,0,0,0,2.9665,2.9679,2.9662,2.9738,2.9758,2.9771,2.9811,2.9791,2.982,2.9813,2.9796,2.98,2.9867,2.9873,2.9832,2.995,2.9902,2.9912,2.9944,2.9958,2.997,2.9967,2.9779,0,0,0,0,0,2.9687,2.9728,2.9737,2.9803,2.9814,2.9811,2.9833,2.9822,2.9841,2.9849,2.9856,2.9876,2.9911,2.9935,2.9968,3.0048,3.0051,3.0085,3.0097,3.0107,3.0115,3.0158,3.0173,3.0009,3.0009,3.0009,0,0,2.9731,2.9744,2.977,2.9815,2.9829,2.9871,2.9819,2.9865,2.9896,2.9856,2.9916,2.9922,2.9942,3.0014,3.0046,3.0022,3.0162,3.0116,3.0124,3.0127,3.0167,3.0182,3.0196,3.0014,3.0013,3.0012,0,0,2.9833,2.9847,2.9904,2.992,2.9943,2.994,2.9954,2.997,2.9973,3.0033,3.0004,3.004,3.0102,3.0118,3.0134,3.0244,3.0219,3.0255,3.0317,3.0358,3.0371,3.0383,3.0422,3.0436,3.0264,3.0264,3.0264,0,2.9885,2.9949,2.9935,2.9985,3.0005,2.9972,3.0029,3.0044,3.0076,3.0091,3.0064,3.0141,3.0153,3.0228,3.0255,3.0269,3.0284,3.0253,3.0371,3.0382,3.0392,3.0429,3.0444,3.0268,3.0267,3.0267,3.0267,0,3.0011,3.0056,3.0098,3.0132,3.0157,3.0209,3.0204,3.0231,3.0218,3.0218,3.028,3.0292,3.0328,3.0345,3.0332,3.0418,3.0403,3.0374,3.0325,3.0413,3.0447,3.0461,3.0274,3.0272,3.0271,3.027,0,0,3.015,3.0176,3.0192,3.0207,3.023,3.0263,3.0315,3.035,3.0374,3.0397,3.0439,3.0493,3.0466,3.0485,3.0474,3.0511,3.0597,3.0477,3.0477,3.0499,3.0693,3.0714,3.0731,3.0581,3.0584,3.0586,3.0691,0,3.0252,3.0342,3.0332,3.0418,3.0458,3.0428,3.0473,3.0491,3.0493,3.0527,3.0529,3.0568,3.053,3.0541,3.0576,3.0579,3.0635,3.0571,3.0619,3.0621,3.0615,3.0749,3.0772,3.087,3.0704,3.0706,3.0708,0,3.0384,3.0414,3.0504,3.0521,3.0538,3.0578,3.061,3.0644,3.0664,3.0663,3.0684,3.0667,3.0717,3.0668,3.0738,3.0694,3.0713,3.0718,3.0721,3.0725,3.067,3.0756,3.0902,3.0916,3.0729,3.0727,3.0726,0,3.0476,3.0538,3.06,3.0614,3.0636,3.0665,3.0675,3.0693,3.0715,3.0743,3.0758,3.0791,3.0809,3.0834,3.0826,3.0791,3.0897,3.0847,3.0897,3.0898,3.0921,3.0919,3.1071,3.0934,3.0933,3.0933,3.0933,0,3.0592,3.0648,3.0642,3.068,3.0742,3.073,3.0791,3.0797,3.0814,3.0852,3.0827,3.0864,3.0851,3.0886,3.088,3.0938,3.0946,3.0946,3.0944,3.0949,3.0949,3.0961,3.0953,3.0937,3.0936,3.0935,3.0935,0,3.0705,3.0703,3.0769,3.0785,3.079,3.0835,3.0848,3.0884,3.0884,3.0933,3.0944,3.0944,3.0984,3.0979,3.1023,3.1019,3.1092,3.1081,3.1086,3.1083,3.1134,3.1129,3.1298,3.132,3.1169,3.117,3.1171,0,3.0779,3.0822,3.0843,3.0867,3.088,3.092,3.0943,3.0932,3.0957,3.0984,3.1016,3.1055,3.1085,3.1151,3.1154,3.1188,3.1178,3.1235,3.1183,3.1186,3.1179,3.1177,3.1181,3.1245,3.1247,3.1249,3.125,0,3.091,3.0908,3.0942,3.0977,3.1006,3.1032,3.1056,3.1078,3.1069,3.1098,3.114,3.1164,3.121,3.1248,3.128,3.129,3.1269,3.1266,3.128,3.1285,3.1285,3.1286,3.1114,3.1262,3.1261,3.126,3.1259,3.1259,3.1006,3.1043,3.1064,3.1103,3.1121,3.1144,3.1178,3.1183,3.1218,3.1256,3.1247,3.1294,3.1314,3.1355,3.1368,3.1404,3.1383,3.1403,3.1407,3.1412,3.1419,3.128,3.141,3.141,3.1409,3.1409,3.1409,0,3.1136,3.1148,3.1185,3.122,3.1251,3.123,3.1255,3.1282,3.1325,3.1345,3.1376,3.1424,3.1461,3.1468,3.1503,3.1531,3.1522,3.154,3.1538,3.1541,3.1435,3.142,3.1547,3.1547,3.1547,3.1547,3.1547,3.1547,3.1208,3.1269,3.1269,3.1338,3.1349,3.1396,3.1413,3.1434,3.145,3.1505,3.1537,3.1541,3.1556,3.1593,3.1626,3.1627,3.1641,3.1663,3.1661,3.1562,3.1548,3.1535,3.1521,3.1667,3.1667,3.1763,3.1764,3.1765]}]]